sat.trackr.live / text

‹ back to catalog

2025-313Z

NORAD 67271 · 2025-313Z

PAYLOAD ACTIVE UNKNOWN

§ Identity

Operator
Country
TBD
Launch date
2025-12-28
Launch site
VOSTO
Launch vehicle
Mass (kg)
RCS (m²)

External: N2YO · Heavens-Above · Gunter

§ Orbital elements

Epoch: 2026-09-20T19:42:03.931776Z

Period
94.60 min
Inclination
97.3859°
Eccentricity
0.0015433
Mean motion
15.22244957 rev/d
Perigee alt
488.5 km
Apogee alt
509.7 km
Semi-major
6,877.2 km
B*
1.1734e-4
RAAN
336.5986°
Arg perigee
32.1558°
Mean anomaly
328.0616°
Rev number
4,048

§ Raw data

2025-313Z1 67271U 25313Z   26263.82087884  .00002636  00000+0  11734-3 0  99962 67271  97.3859 336.5986 0015433  32.1558 328.0616 15.22244957 40489

JSON: /api/v1/satellites/67271 · /tle

For live sub-satellite position, see the globe view (requires WebGL).

§ Visibility from observer

Set your observer location to see the next 7 days of passes ≥ 10°. The values pass through the URL so the page stays shareable.

No JS? Fill the form by hand. The geolocation button needs JavaScript.

§ Radio — SatNOGS DB

ModeDescriptionDownlinkUplink
FSK Mode U 437.200 MHz

1 transmitter · refreshed weekly from db.satnogs.org